Flag for U.S.A. Weather past 2 weeks in Huntsville, Alabama, U.S.A.

Now
91 °F

Sunny.


Feels Like: 90 °F
Forecast: 65 / 89 °F
Wind: 12 mph from North

Location: Huntsville International / Jones Field

Current Time: Jul 31, 2015 at 6:52:56 PM

Latest Report: Jul 31, 2015 at 5:53 PM


Visibility: 10 mi

Pressure: 29.94 "Hg

Humidity: 34%

Dew point: 59 °F

Location of HuntsvilleLocation

Historic Weather in Huntsville — Graph

°F

Huntsville temperature yesterday

Maximum temperature yesterday: 93 °F (at 2:53 PM)
Minimum temperature yesterday: 73 °F (at 10:53 PM)
Average temperature yesterday: 83 °F

Past Weeks' High & Low Weather Summary

 TemperatureHumidityPressure
High99 °F (Jul 28, 1:53 PM)90% (Jul 22, 3:53 AM)30.05 "Hg (Jul 22, 3:53 AM)
Low69 °F (Jul 31, 6:53 AM)29% (Jul 31, 3:53 PM)29.81 "Hg (Jul 21, 3:53 AM)
Average84 °F68%29.95 "Hg
* Reported Jul 16 4:53 PM — Jul 31 4:53 PM, Huntsville, Weather by CustomWeather, © 2015

Note: Actual official high and low records may vary slightly from our data, if they occured in-between our weather recording intervals... More about our weather records

Advertising

Huntsville weather history for previous 24 hours

 ConditionsComfort  
Time TempWeatherWind HumidityBarometerVisibility
4:53 PM
Fri, Jul 31
92 °FSunny.15 mph29%29.95 "Hg10 mi
3:53 PM93 °FSunny.14 mph29%29.96 "Hg10 mi
2:53 PM92 °FSunny.13 mph32%29.98 "Hg10 mi
1:53 PM92 °FPassing clouds.10 mph32%30.00 "Hg10 mi
12:53 PM91 °FPassing clouds.14 mph36%30.02 "Hg10 mi
11:53 AM88 °FPassing clouds.16 mph39%30.03 "Hg10 mi
10:53 AM86 °FPassing clouds.17 mph42%30.04 "Hg10 mi
9:53 AM84 °FPassing clouds.12 mph45%30.04 "Hg10 mi
8:53 AM80 °FPassing clouds.12 mph52%30.05 "Hg10 mi
7:53 AM76 °FPassing clouds.7 mph62%30.05 "Hg10 mi
6:53 AM69 °FPassing clouds.3 mph79%30.03 "Hg10 mi
5:53 AM70 °FPassing clouds.6 mph73%30.01 "Hg10 mi
4:53 AM72 °FClear.7 mph68%30.00 "Hg10 mi
3:53 AM71 °FClear.7 mph71%30.00 "Hg10 mi
2:53 AM71 °FClear.5 mph73%29.99 "Hg10 mi
1:53 AM72 °FClear.5 mph71%29.99 "Hg10 mi
12:53 AM74 °FClear.8 mph67%30.01 "Hg10 mi
11:53 PM
Thu, Jul 30
74 °FClear.No wind69%30.02 "Hg10 mi
10:53 PM73 °FClear.No wind74%30.03 "Hg10 mi
9:53 PM77 °FClear.6 mph64%30.02 "Hg10 mi
8:53 PM79 °FClear.7 mph60%30.00 "Hg10 mi
7:53 PM83 °FSunny.9 mph43%29.98 "Hg10 mi
6:53 PM88 °FSunny.10 mph36%29.98 "Hg10 mi
Weather by CustomWeather, © 2015

See weather overviewHow to use our weather pages